FENGYUN 1C DEB, 30301

Orbit data source: Space-Track

FENGYUN 1C DEB, 30301 is space debris in SSO originally from a launch on Mon, 10 May 1999 UTC launched from the Taiyaun Space Center, China (TSC). Fengyun 1C debris stems from the Chinese weather satellite Fengyun-1C, which was intentionally destroyed by a Chinese anti-satellite missile in 2007. This event dramatically increased the amount of space debris, with thousands of trackable fragments posing hazards to satellites and human spaceflight. The Fengyun 1C debris cloud has become a focal point in discussions about space sustainability and the need for international regulations to prevent the creation of new debris.

Loading next visibility...
Identifier
30301, 1999-025ZN
Orbit
SSO
Country
Flag of CNCN / PRC
Related business
Manufacturer
Unknown
Mission
Spacecraft
Bus & Motor
Unknown
Mass
Unknown
Launch date (UTC)
1999-05-10 (27 years ago)
Launch vehicle
Unknown
Launch site
Taiyaun Space Center, China (TSC)
Object type
Payload
Rocket body
Debris
Shape & HBR
Unknown shape, 0.1 m
Radar Cross Section
Small (<0.1 m²)

Expand to show TLE details & history
Last TLE update: 14 hours ago

TLE from 14 hours ago
0 FENGYUN 1C DEB
1 30301U 99025ZN  26070.94799406  .00014240  00000-0  30806-2 0  9995
2 30301  98.6343 230.0298 0059971  17.0594 112.8441 14.57230239985147
Epoch: 2026-03-11T22:45Z
TLE epoch observation values (Epoch: 2026-03-11T22:45:06.686Z)
Latitude
48.81202°
Longitude
-90.91401°
Altitude
726.509 km
Speed
7.488 km/s
True Right ascension
03h 59m 52s
True Declination
48° 38' 27"
Sunlit
Object was in daylight at epoch
Visualization orbit readout
Latitude
Unknown
Longitude
Unknown
Altitude
Unknown
Speed
Unknown
Apparent Right ascension
Unknown
Apparent Declination
Unknown
Sunlit
N/A
Visualization observer readout
Local Sidereal Time
17:28:39
Azimuth
Unknown
Elevation
Unknown
Doppler factor
Unknown
Orbital elements
Apogee altitude
741.68 km
Perigee altitude
656.793 km
Semi-major axis
7,077.374 km
Eccentricity
0.006
Inclination
98.6343°
RAAN
230.0298°
Arg. of periapsis
17.0594°
True anomaly
113.47556°
Mean anomaly
112.8441°
Eccentric anomaly
113.16002°
Mean motion
3.64531 °/min
Orbital period
98.76 mins
BSTAR
0.0030806
Loading maneuver chart data...
Computing Atmospheric mass density...
Loading historical data...
Loading historical data...
Loading historical data...
Loading historical data...
Loading historical data...
Loading historical data...
Loading historical data...

Documentation

Showing up to 5 results
|